Weather in Oleksandrivka

Ukraine / Kirovohrad Region     48°57′52″N   32°14′09″E
temp.,
°C
wind,
m/s
gust,
m/s
humid.,
%
clouds,
%
prec.,
mm/h
press.,
hPa
HPBL,
m
16 june, wed
wed1600:00+17ne348929 3.7 100954
03:00+16ne349469 4.2 100977
06:00+17nne249591 0.1 1009112
09:00+18ene2495100 1.3 1011165
12:00+22ene357596 4.3 1011491
15:00+20ne5887100 8.8 1012480
18:00+21nne368182 1.4 1012436
21:00+18nne3388100 2.3 101348
17 june, thu
thu1700:00+17nne22911 4.6 101325
03:00+16nne3695100 4.6 1014116
06:00+16ne3796100 0.0 1015181
09:00+20ne588519 0.0 1015491
12:00+23ne7972100 1.1 10161212
15:00+21ne5983100 1.1 1017499
18:00+23ne7108379 1.0 1017934
21:00+19ne6129413 3.3 1018412
18 june, fri
fri1800:00+18ne613959 2.1 1019482
03:00+17ne7149525 2.1 1019507
06:00+16ne7139311 0.0 1019485
09:00+19ene8128570 0.0 1020674
12:00+20ene71183100 0.0 1020992
15:00+21e6118358 0.1 1020877
18:00+21e5118397 0.1 1020803
21:00+19ene411873 0.2 1021330
19 june, sat
sat1900:00+17e38950 0.0 1021200
03:00+17ne369781 0.1 1021156
06:00+16ene41093100 0.0 1021339
09:00+20ene6107999 0.0 1021649
12:00+22ene71065100 0.0 10201033
15:00+23e7106599 0.0 10191464
18:00+22e5976100 0.1 1019612
21:00+20ene5118689 0.2 1019393
20 june, sun
sun2000:00+19e4118719 0.2 1019345
03:00+16ene4109663 0.2 1019227
06:00+17ene4109299 0.1 1019271
09:00+19ene597984 0.1 1019390
12:00+23ene796499 0.0 1018688
15:00+25ene71062100 0.0 10171137
18:00+23ene61170100 0.0 1016870
21:00+20ene51280100 0.0 1016396